Daviess Cnty AP, Washington,, IN

6:51 PM EST on December 14, 2019 (GMT -0500)
Daviess County

Weather History for KDCY - November, 2019

Change the Weather History Date:

Thursday, November 21, 2019

  Actual Average (WUND) Record (WUND)
Temperature  
Mean Temperature 46 °F -  
Max Temperature 53 °F - - (-1)
Min Temperature 40 °F - - (-1)
Degree Days  
Heating Degree Days 18    
Moisture  
Dew Point 46 °F    
Average Humidity 91    
Maximum Humidity 100    
Minimum Humidity 68    
Precipitation  
Precipitation 0.15 in - - ()
Sea Level Pressure  
Sea Level Pressure 30.03 in    
Wind  
Wind Speed 11 mph (SSW)    
Max Wind Speed 21 mph    
Max Gust Speed 31 mph    
Visibility 8 miles    
Events Rain    
Averages and records for this station are not official NWS values.
T = Trace of Precipitation, MM = Missing Value Source: NWS Daily Summary

Daily Weather History Graph

Daily Weather History Graph

Search for Another Location

Airport or City:

Astronomy

Nov. 21, 2019 Rise Set
Actual Time 7:37 AM EST 5:31 PM EST
Civil Twilight 7:08 AM EST 6:00 PM EST
Nautical Twilight 6:35 AM EST 6:32 PM EST
Astronomical Twilight 6:04 AM EST 7:04 PM EST
Moon 1:37 AM EST (11/21) 2:55 PM EST (11/21)
Length of Visible Light 10h 51m
Length of Day
9h 54m
Waning Crescent, 30% of the Moon is Illuminated
Nov 21
Waning Crescent
Nov 26
New
Dec 4
First Quarter
Dec 12
Full
Dec 18
Last Quarter

Hourly Weather History & Observations

Time (EST) Temp. Windchill Dew Point Humidity Pressure Visibility Wind Dir Wind Speed Gust Speed Precip Events Conditions
12:15 AM 40.8 °F 36.9 °F 40.6 °F 99% 30.18 in 10.0 mi SE 5.8 mph - N/A   Clear
12:35 AM 40.1 °F 36.1 °F 40.1 °F 100% 30.17 in 7.0 mi SE 5.8 mph - N/A   Clear
12:55 AM 40.3 °F 37.1 °F 40.1 °F 99% 30.17 in 7.0 mi ESE 4.6 mph - N/A   Clear
1:15 AM 40.3 °F 36.3 °F 40.1 °F 99% 30.16 in 7.0 mi SE 5.8 mph - N/A   Clear
1:35 AM 40.5 °F 34.6 °F 40.3 °F 99% 30.15 in 7.0 mi SE 9.2 mph - N/A   Clear
1:55 AM 41.0 °F 35.8 °F 40.8 °F 99% 30.14 in 7.0 mi SSE 8.1 mph - N/A   Clear
2:15 AM 41.9 °F 36.3 °F 41.2 °F 97% 30.15 in 10.0 mi SSE 9.2 mph - N/A   Clear
2:35 AM 42.1 °F 37.1 °F 41.4 °F 97% 30.14 in 10.0 mi SSE 8.1 mph - N/A   Clear
2:55 AM 43.2 °F 39.0 °F 41.0 °F 92% 30.12 in 10.0 mi SSE 6.9 mph - N/A   Clear
3:15 AM 43.7 °F 38.6 °F 40.8 °F 90% 30.11 in 10.0 mi SSE 9.2 mph - N/A   Clear
3:35 AM 44.2 °F 38.8 °F 40.8 °F 88% 30.11 in 10.0 mi SSE 10.4 mph - N/A   Clear
3:55 AM 45.0 °F 40.1 °F 40.3 °F 84% 30.12 in 10.0 mi SSE 9.2 mph - N/A   Clear
4:15 AM 44.8 °F 39.0 °F 40.5 °F 85% 30.10 in 10.0 mi SSE 11.5 mph - N/A   Clear
4:55 AM 45.3 °F 39.7 °F 40.3 °F 83% 30.07 in 10.0 mi SSE 11.5 mph - N/A   Mostly Cloudy
5:15 AM 45.9 °F 39.7 °F 40.3 °F 81% 30.08 in 10.0 mi South 13.8 mph - N/A   Mostly Cloudy
5:55 AM 45.7 °F 39.8 °F 39.6 °F 79% 30.07 in 10.0 mi South 12.7 mph - N/A   Mostly Cloudy
6:15 AM 45.9 °F 39.7 °F 39.6 °F 79% 30.06 in 10.0 mi South 13.8 mph - N/A   Scattered Clouds
6:35 AM 46.0 °F 39.3 °F 39.6 °F 78% 30.06 in 10.0 mi South 16.1 mph - N/A   Scattered Clouds
7:15 AM 46.6 °F - 39.2 °F 75% 30.05 in 10.0 mi South 13.8 mph - N/A   Scattered Clouds
7:35 AM 47.7 °F - 38.8 °F 71% 30.05 in 10.0 mi South 13.8 mph - N/A   Mostly Cloudy
7:55 AM 48.4 °F - 38.8 °F 70% 30.05 in 10.0 mi South 15.0 mph - N/A   Overcast
8:15 AM 48.7 °F - 38.8 °F 69% 30.04 in 10.0 mi South 16.1 mph - N/A   Overcast
8:35 AM 48.7 °F - 39.2 °F 70% 30.03 in 10.0 mi South 13.8 mph - N/A   Overcast
8:55 AM 49.6 °F - 39.4 °F 68% 30.02 in 10.0 mi South 12.7 mph 24.2 mph N/A   Light Drizzle
9:15 AM 48.9 °F - 40.3 °F 72% 30.03 in 10.0 mi South 9.2 mph 28.8 mph N/A Rain Light Rain
9:35 AM 49.1 °F - 41.2 °F 74% 30.03 in 10.0 mi South 10.4 mph - N/A Rain Light Rain
10:15 AM 51.3 °F - 43.2 °F 74% 30.02 in 10.0 mi South 17.3 mph 23.0 mph 0.01 in Rain Light Rain
10:35 AM 51.1 °F - 43.3 °F 75% 30.02 in 10.0 mi South 12.7 mph - 0.01 in Rain Light Rain
10:55 AM 50.7 °F - 43.2 °F 75% 30.03 in 10.0 mi SW 12.7 mph 19.6 mph 0.03 in Rain Rain
11:15 AM 49.1 °F - 44.8 °F 85% 30.03 in 3.0 mi SSW 16.1 mph 20.7 mph 0.05 in Rain Rain
11:35 AM 49.3 °F - 45.1 °F 86% 30.01 in 7.0 mi SSW 19.6 mph 24.2 mph 0.11 in Rain Light Rain
11:55 AM 49.1 °F - 47.1 °F 93% 30.00 in 7.0 mi SSW 13.8 mph 20.7 mph 0.11 in   Drizzle
12:15 PM 49.1 °F - 48.4 °F 97% 29.99 in 10.0 mi SSW 16.1 mph 21.9 mph N/A   Drizzle
12:35 PM 49.1 °F - 48.9 °F 99% 29.99 in 10.0 mi SSW 15.0 mph 20.7 mph N/A   Drizzle
12:55 PM 49.1 °F - 49.1 °F 100% 29.97 in 10.0 mi SSW 16.1 mph 23.0 mph 0.01 in   Overcast
1:15 PM 49.8 °F - 49.5 °F 99% 29.96 in 10.0 mi SSW 19.6 mph 24.2 mph N/A   Overcast
1:55 PM 51.4 °F - 50.4 °F 96% 29.95 in 10.0 mi SSW 20.7 mph 25.3 mph N/A   Overcast
2:15 PM 51.4 °F - 50.5 °F 97% 29.95 in 10.0 mi SSW 16.1 mph 21.9 mph N/A   Overcast
2:35 PM 52.0 °F - 50.2 °F 94% 29.94 in 10.0 mi SSW 17.3 mph 24.2 mph N/A   Overcast
2:55 PM 52.7 °F - 50.2 °F 91% 29.94 in 10.0 mi SSW 18.4 mph 27.6 mph N/A   Overcast
3:15 PM 53.1 °F - 50.4 °F 91% 29.94 in 10.0 mi SSW 19.6 mph 31.1 mph N/A   Overcast
3:35 PM 53.4 °F - 50.4 °F 89% 29.94 in 10.0 mi SSW 18.4 mph 27.6 mph N/A   Overcast
4:15 PM 53.2 °F - 51.4 °F 94% 29.94 in 10.0 mi SSW 15.0 mph 24.2 mph N/A   Overcast
4:35 PM 53.2 °F - 51.8 °F 95% 29.96 in 10.0 mi SSW 16.1 mph - N/A   Overcast
4:55 PM 53.1 °F - 52.3 °F 97% 29.96 in 5.0 mi SSW 16.1 mph 24.2 mph N/A   Overcast
5:15 PM 52.9 °F - 52.7 °F 99% 29.96 in 5.0 mi SSW 17.3 mph 23.0 mph N/A   Overcast
5:35 PM 53.2 °F - 52.9 °F 99% 29.96 in 10.0 mi SSW 16.1 mph 24.2 mph N/A   Overcast
5:55 PM 53.6 °F - 53.1 °F 98% 29.97 in 10.0 mi SW 17.3 mph 25.3 mph N/A   Overcast
6:15 PM 53.6 °F - 53.2 °F 99% 29.97 in 10.0 mi SSW 13.8 mph 21.9 mph N/A   Overcast
6:55 PM 53.6 °F - 53.1 °F 98% 29.96 in 10.0 mi SSW 17.3 mph 24.2 mph N/A   Overcast
7:15 PM 53.2 °F - 53.1 °F 99% 29.97 in 10.0 mi SSW 16.1 mph 21.9 mph N/A   Overcast
7:35 PM 53.2 °F - 53.1 °F 99% 29.98 in 4.0 mi SW 17.3 mph 24.2 mph N/A   Overcast
7:55 PM 53.2 °F - 52.9 °F 99% 29.98 in 4.0 mi SW 15.0 mph - N/A   Overcast
8:15 PM 53.1 °F - 52.9 °F 99% 29.98 in 4.0 mi SW 16.1 mph 20.7 mph N/A   Overcast
8:35 PM 53.1 °F - 52.9 °F 99% 29.98 in 5.0 mi SW 13.8 mph 19.6 mph N/A   Overcast
8:55 PM 53.2 °F - 52.9 °F 99% 29.98 in 4.0 mi SW 10.4 mph - N/A Rain Light Rain
9:15 PM 53.1 °F - 52.9 °F 99% 29.99 in 5.0 mi SW 10.4 mph - N/A   Overcast
9:35 PM 53.1 °F - 52.9 °F 99% 30.00 in 4.0 mi SW 10.4 mph - N/A   Light Drizzle
9:55 PM 53.1 °F - 52.9 °F 99% 29.99 in 4.0 mi SW 9.2 mph - N/A   Overcast
10:15 PM 53.1 °F - 52.9 °F 99% 30.00 in 4.0 mi WSW 9.2 mph - N/A   Overcast
10:35 PM 50.7 °F - 50.5 °F 99% 30.00 in 3.0 mi NW 13.8 mph 19.6 mph N/A Rain Rain
10:55 PM 50.0 °F - 49.6 °F 99% 29.99 in 3.0 mi NW 10.4 mph - N/A   Light Drizzle
11:15 PM 49.1 °F - 49.1 °F 100% 30.00 in 5.0 mi NNW 10.4 mph - N/A   Overcast
11:35 PM 48.2 °F - 48.0 °F 99% 30.00 in 4.0 mi NW 11.5 mph - N/A   Overcast
11:55 PM 48.2 °F - 47.8 °F 99% 30.00 in 10.0 mi NW 9.2 mph - N/A   Overcast